When you browse on this site, cookies collect data to enhance your experience and personalize the content and advertising you see.
Visit our Privacy Policy to learn more. By continuing to use the site, you agree to this use of cookies and data.
  • In Romania
  • List of Countries
  • For 7 days
  • Water Temperature
  • Satellite Maps
  • Weather Map
  • Weather Widgets
  • user-avatar
    Login

    Hourly Weather Balchik

    Today, 24 March, Sunday

    Time Temperature Precipitation Wind Pressure Humidity
    00:00 +5°C° 0 mm 1 mps 745 mmHg 53%
    01:00 +5°C° 0 mm 1 mps 745 mmHg 52%
    02:00 +3°C° 0 mm 2 mps 745 mmHg 51%
    03:00 +3°C° 0 mm 2 mps 744 mmHg 51%
    04:00 +3°C° 0 mm 2 mps 744 mmHg 51%
    05:00 +3°C° 0 mm 2 mps 744 mmHg 51%
    06:00 +2°C° 0 mm 3 mps 744 mmHg 51%
    07:00 +3°C° 0 mm 3 mps 744 mmHg 52%
    08:00 +4°C° 0 mm 3 mps 744 mmHg 52%
    09:00 +7°C° 0 mm 3 mps 744 mmHg 47%
    10:00 +8°C° 0 mm 3 mps 745 mmHg 43%
    11:00 +10°C° 0 mm 3 mps 745 mmHg 38%
    12:00 +11°C° 0 mm 3 mps 744 mmHg 37%
    13:00 +11°C° 0 mm 3 mps 744 mmHg 35%
    14:00 +12°C° 0 mm 3 mps 744 mmHg 33%
    15:00 +13°C° 0 mm 2 mps 743 mmHg 35%
    16:00 +12°C° 0 mm 2 mps 743 mmHg 38%
    17:00 +12°C° 0 mm 2 mps 742 mmHg 40%
    18:00 +9°C° 0 mm 2 mps 742 mmHg 47%
    19:00 +8°C° 0 mm 2 mps 742 mmHg 55%
    20:00 +6°C° 0 mm 2 mps 742 mmHg 62%
    21:00 +5°C° 0 mm 2 mps 742 mmHg 65%
    22:00 +5°C° 0 mm 2 mps 742 mmHg 68%
    23:00 +5°C° 0 mm 2 mps 742 mmHg 71%

    Tomorrow, 25 March, Monday

    Time Temperature Precipitation Wind Pressure Humidity
    00:00 +4°C° 0 mm 3 mps 741 mmHg 71%
    01:00 +3°C° 0 mm 3 mps 741 mmHg 71%
    02:00 +3°C° 0 mm 3 mps 741 mmHg 71%
    03:00 +3°C° 0 mm 3 mps 741 mmHg 70%
    04:00 +3°C° 0 mm 3 mps 740 mmHg 70%
    05:00 +3°C° 0 mm 3 mps 740 mmHg 69%
    06:00 +4°C° 0 mm 3 mps 740 mmHg 65%
    07:00 +7°C° 0 mm 3 mps 739 mmHg 61%
    08:00 +8°C° 0 mm 3 mps 739 mmHg 57%
    09:00 +10°C° 0 mm 3 mps 739 mmHg 50%
    10:00 +12°C° 0 mm 3 mps 739 mmHg 44%
    11:00 +15°C° 0 mm 4 mps 739 mmHg 37%
    12:00 +15°C° 0 mm 4 mps 738 mmHg 37%
    13:00 +17°C° 0 mm 4 mps 738 mmHg 37%
    14:00 +16°C° 0 mm 5 mps 737 mmHg 37%
    15:00 +16°C° 0 mm 5 mps 737 mmHg 41%
    16:00 +15°C° 0 mm 5 mps 736 mmHg 45%
    17:00 +14°C° 0 mm 5 mps 736 mmHg 49%
    18:00 +12°C° 0 mm 5 mps 736 mmHg 54%
    19:00 +9°C° 0 mm 5 mps 736 mmHg 60%
    20:00 +7°C° 0 mm 5 mps 735 mmHg 65%
    21:00 +7°C° 0 mm 4 mps 735 mmHg 67%
    22:00 +7°C° 0 mm 4 mps 735 mmHg 68%
    23:00 +6°C° 0 mm 4 mps 735 mmHg 70%

    Day after tomorrow, 26 March, Tuesday

    Time Temperature Precipitation Wind Pressure Humidity
    00:00 +7°C° 0 mm 3 mps 735 mmHg 73%
    01:00 +7°C° 0 mm 3 mps 735 mmHg 76%
    02:00 +7°C° 0 mm 3 mps 735 mmHg 79%
    03:00 +5°C° 0 mm 3 mps 735 mmHg 80%
    04:00 +5°C° 0 mm 3 mps 735 mmHg 81%
    05:00 +5°C° 0 mm 3 mps 735 mmHg 82%
    06:00 +7°C° 0 mm 3 mps 736 mmHg 78%
    07:00 +8°C° 0 mm 3 mps 736 mmHg 74%
    08:00 +9°C° 0 mm 3 mps 737 mmHg 70%
    09:00 +11°C° 0 mm 3 mps 737 mmHg 62%
    10:00 +14°C° 0 mm 2 mps 737 mmHg 54%
    11:00 +16°C° 0 mm 2 mps 738 mmHg 46%
    12:00 +17°C° 0 mm 2 mps 738 mmHg 45%
    13:00 +17°C° 0 mm 3 mps 738 mmHg 44%
    14:00 +18°C° 0 mm 3 mps 738 mmHg 43%
    15:00 +15°C° 0.1 mm 5 mps 738 mmHg 53%
    16:00 +11°C° 0.1 mm 6 mps 739 mmHg 62%
    17:00 +9°C° 0.1 mm 8 mps 739 mmHg 72%
    18:00 +8°C° 0 mm 7 mps 740 mmHg 73%
    19:00 +8°C° 0 mm 7 mps 740 mmHg 73%
    20:00 +7°C° 0 mm 6 mps 741 mmHg 74%
    21:00 +7°C° 0.3 mm 6 mps 742 mmHg 73%
    22:00 +7°C° 0.3 mm 5 mps 742 mmHg 72%
    23:00 +7°C° 0.3 mm 5 mps 743 mmHg 71%

    27 March, Wednesday

    Time Temperature Precipitation Wind Pressure Humidity
    00:00 +6°C° 0.1 mm 5 mps 743 mmHg 70%
    01:00 +6°C° 0.1 mm 5 mps 743 mmHg 69%
    02:00 +6°C° 0.1 mm 5 mps 743 mmHg 67%
    03:00 +5°C° 0 mm 5 mps 744 mmHg 66%
    04:00 +5°C° 0 mm 5 mps 744 mmHg 65%
    05:00 +3°C° 0 mm 5 mps 744 mmHg 64%
    06:00 +3°C° 0 mm 5 mps 744 mmHg 60%
    07:00 +3°C° 0 mm 5 mps 745 mmHg 57%
    08:00 +5°C° 0 mm 5 mps 745 mmHg 53%
    09:00 +6°C° 0 mm 5 mps 746 mmHg 47%
    10:00 +7°C° 0 mm 4 mps 746 mmHg 41%
    11:00 +8°C° 0 mm 4 mps 746 mmHg 35%
    12:00 +10°C° 0 mm 4 mps 746 mmHg 34%
    13:00 +10°C° 0 mm 4 mps 746 mmHg 33%
    14:00 +11°C° 0 mm 3 mps 746 mmHg 32%
    15:00 +11°C° 0 mm 3 mps 746 mmHg 34%
    16:00 +10°C° 0 mm 3 mps 746 mmHg 35%
    17:00 +10°C° 0 mm 3 mps 746 mmHg 37%
    18:00 +8°C° 0 mm 2 mps 746 mmHg 43%
    19:00 +6°C° 0 mm 2 mps 747 mmHg 48%
    20:00 +5°C° 0 mm 2 mps 747 mmHg 54%
    21:00 +5°C° 0 mm 1 mps 747 mmHg 55%
    22:00 +5°C° 0 mm 1 mps 747 mmHg 56%
    23:00 +3°C° 0 mm 0 mps 748 mmHg 57%

    28 March, Thursday

    Time Temperature Precipitation Wind Pressure Humidity
    00:00 +4°C° 0 mm 1 mps 748 mmHg 58%
    01:00 +3°C° 0 mm 2 mps 748 mmHg 59%
    02:00 +3°C° 0 mm 2 mps 748 mmHg 59%
    03:00 +3°C° 0 mm 2 mps 748 mmHg 62%
    04:00 +2°C° 0 mm 2 mps 748 mmHg 64%
    05:00 +1°C° 0 mm 3 mps 748 mmHg 67%
    06:00 +2°C° 0 mm 3 mps 748 mmHg 62%
    07:00 +3°C° 0 mm 4 mps 749 mmHg 58%
    08:00 +3°C° 0 mm 5 mps 749 mmHg 54%
    09:00 +5°C° 0 mm 5 mps 749 mmHg 50%
    10:00 +6°C° 0 mm 5 mps 749 mmHg 46%
    11:00 +7°C° 0 mm 5 mps 749 mmHg 42%
    12:00 +7°C° 0 mm 5 mps 749 mmHg 43%
    13:00 +7°C° 0 mm 5 mps 749 mmHg 43%
    14:00 +8°C° 0 mm 5 mps 749 mmHg 43%
    15:00 +7°C° 0 mm 5 mps 749 mmHg 45%
    16:00 +7°C° 0 mm 5 mps 748 mmHg 46%
    17:00 +6°C° 0 mm 5 mps 748 mmHg 47%
    18:00 +5°C° 0 mm 4 mps 748 mmHg 53%
    19:00 +3°C° 0 mm 3 mps 748 mmHg 59%
    20:00 +3°C° 0 mm 2 mps 749 mmHg 65%
    21:00 +2°C° 0 mm 2 mps 749 mmHg 67%
    22:00 +2°C° 0 mm 2 mps 749 mmHg 68%
    23:00 +3°C° 0 mm 1 mps 749 mmHg 69%

    29 March, Friday

    Time Temperature Precipitation Wind Pressure Humidity
    00:00 +3°C° 0 mm 1 mps 748 mmHg 69%
    01:00 +2°C° 0 mm 1 mps 748 mmHg 69%
    02:00 +2°C° 0 mm 1 mps 748 mmHg 68%
    03:00 +1°C° 0 mm 2 mps 748 mmHg 67%
    04:00 +1°C° 0 mm 2 mps 748 mmHg 66%
    05:00 +1°C° 0 mm 2 mps 748 mmHg 65%
    06:00 +2°C° 0 mm 2 mps 748 mmHg 61%
    07:00 +3°C° 0 mm 3 mps 748 mmHg 57%
    08:00 +4°C° 0 mm 3 mps 748 mmHg 53%
    09:00 +7°C° 0 mm 3 mps 748 mmHg 50%
    10:00 +8°C° 0 mm 4 mps 748 mmHg 46%
    11:00 +11°C° 0 mm 4 mps 748 mmHg 43%
    12:00 +12°C° 0 mm 4 mps 748 mmHg 43%
    13:00 +12°C° 0 mm 5 mps 747 mmHg 44%
    14:00 +13°C° 0 mm 5 mps 747 mmHg 45%
    15:00 +13°C° 0 mm 5 mps 746 mmHg 48%
    16:00 +12°C° 0 mm 5 mps 746 mmHg 50%
    17:00 +12°C° 0 mm 5 mps 745 mmHg 53%
    18:00 +10°C° 0 mm 4 mps 745 mmHg 57%
    19:00 +8°C° 0 mm 4 mps 745 mmHg 61%
    20:00 +8°C° 0 mm 3 mps 745 mmHg 65%
    21:00 +7°C° 0 mm 3 mps 745 mmHg 66%
    22:00 +7°C° 0 mm 3 mps 745 mmHg 66%
    23:00 +5°C° 0 mm 3 mps 745 mmHg 67%
    Show more